Pope Field Airport, NC

4:15 PM EDT on July 23, 2017 (GMT -0400)
Pope Field Airport

Weather History for KPOB - December, 2012

Change the Weather History Date:

Sunday, December 2, 2012

  Actual Average Record
Temperature  
Mean Temperature 52 °F -  
Max Temperature 69 °F 61 °F 81 °F (1991)
Min Temperature 35 °F 37 °F 21 °F (1999)
Degree Days  
Heating Degree Days 13    
Growing Degree Days 2 (Base 50)    
Moisture  
Dew Point 44 °F    
Average Humidity 81    
Maximum Humidity 97    
Minimum Humidity 51    
Precipitation  
Precipitation 0.00 in - - ()
Sea Level Pressure  
Sea Level Pressure 30.34 in    
Wind  
Wind Speed 2 mph (SSW)    
Max Wind Speed 12 mph    
Max Gust Speed -    
Visibility 10 miles    
Events      
Averages and records for this station are not official NWS values.
T = Trace of Precipitation, MM = Missing Value Source: NWS Daily Summary

Daily Weather History Graph

Daily Weather History Graph

Search for Another Location

Airport or City:

Trip Planner

Search our weather history database for the weather conditions in past years. The results will help you decide how hot, cold, wet, or windy it might be!

Date:

Astronomy

Dec. 02, 2012 Rise Set
Actual Time 7:07 AM EST 5:03 PM EST
Civil Twilight 6:39 AM EST 5:31 PM EST
Nautical Twilight 6:08 AM EST 6:03 PM EST
Astronomical Twilight 5:37 AM EST 6:33 PM EST
Moon 8:45 PM EST (12/2) 9:59 AM EST (12/2)
Length of Visible Light 10h 52m
Length of Day
9h 56m
Waning Gibbous, 86% of the Moon is Illuminated
Dec 2
Waning Gibbous
Dec 6
Last Quarter
Dec 13
New
Dec 20
First Quarter
Dec 28
Full

Hourly Weather History & Observations

Time (EST) Temp. Dew Point Humidity Pressure Visibility Wind Dir Wind Speed Gust Speed Precip Events Conditions
12:55 AM 37.9 °F 36.7 °F 95% 30.38 in 10.0 mi Calm Calm - N/A   Clear
1:55 AM 36.7 °F 35.6 °F 96% 30.39 in 10.0 mi Calm Calm - N/A   Clear
2:55 AM 36.5 °F 35.6 °F 97% 30.38 in 10.0 mi Calm Calm - N/A   Clear
3:55 AM 36.7 °F 35.2 °F 95% 30.38 in 9.0 mi Calm Calm - N/A   Clear
4:55 AM 36.0 °F 34.3 °F 94% 30.38 in 10.0 mi Calm Calm - N/A   Clear
5:33 AM 35.6 °F 33.8 °F 93% 30.38 in 8.0 mi Calm Calm - N/A   Clear
5:38 AM 35.6 °F 33.8 °F 93% 30.38 in 8.0 mi Calm Calm - N/A   Clear
5:55 AM 35.8 °F 34.5 °F 95% 30.39 in 10.0 mi Calm Calm - N/A   Clear
6:55 AM 36.5 °F 34.5 °F 93% 30.40 in 10.0 mi Calm Calm - N/A   Clear
7:55 AM 38.3 °F 36.5 °F 93% 30.41 in 10.0 mi Calm Calm - N/A   Overcast
8:55 AM 42.3 °F 39.9 °F 91% 30.42 in 8.0 mi Calm Calm - N/A   Overcast
9:55 AM 46.8 °F 43.2 °F 87% 30.42 in 10.0 mi Calm Calm - N/A   Mostly Cloudy
10:55 AM 54.7 °F 47.1 °F 76% 30.39 in 10.0 mi Calm Calm - N/A   Overcast
11:55 AM 63.5 °F 48.0 °F 57% 30.36 in 10.0 mi SSW 5.8 mph - N/A   Scattered Clouds
12:55 PM 66.0 °F 48.6 °F 53% 30.33 in 10.0 mi SSW 5.8 mph - N/A   Scattered Clouds
1:55 PM 67.3 °F 49.3 °F 52% 30.30 in 10.0 mi SSW 5.8 mph - N/A   Partly Cloudy
2:55 PM 69.3 °F 50.4 °F 51% 30.28 in 10.0 mi SW 11.5 mph - N/A   Clear
3:55 PM 67.5 °F 51.1 °F 56% 30.28 in 10.0 mi SSW 6.9 mph - N/A   Scattered Clouds
4:55 PM 65.7 °F 51.6 °F 60% 30.28 in 10.0 mi SSW 4.6 mph - N/A   Partly Cloudy
5:55 PM 62.2 °F 51.8 °F 69% 30.28 in 10.0 mi South 4.6 mph - N/A   Clear
6:55 PM 61.9 °F 52.9 °F 72% 30.28 in 10.0 mi South 4.6 mph - N/A   Clear
7:55 PM 60.3 °F 54.1 °F 80% 30.29 in 10.0 mi SSW 4.6 mph - N/A   Clear
8:55 PM 59.4 °F 54.1 °F 83% 30.29 in 10.0 mi SSW 6.9 mph - N/A   Clear
9:55 PM 58.1 °F 54.3 °F 87% 30.29 in 10.0 mi SSW 6.9 mph - N/A   Clear
10:55 PM 57.7 °F 54.3 °F 88% 30.29 in 10.0 mi SW 5.8 mph - N/A   Clear
11:55 PM 51.4 °F 50.7 °F 97% 30.30 in 10.0 mi Calm Calm - N/A   Clear